When you browse on this site, cookies collect data to enhance your experience and personalize the content and advertising you see.
Visit our Privacy Policy to learn more. By continuing to use the site, you agree to this use of cookies and data.
  • In Hungary
  • List of Countries
  • For 7 days
  • Water Temperature
  • Satellite Maps
  • Weather Map
  • News
  • Weather Widgets
  • user-avatar
    Login

    Hourly Weather Algiers

    Today, 22 April, Monday

    Time Temperature Precipitation Wind Pressure Humidity
    00:00 +15°C° 0 mm 2 mps 735 mmHg 88%
    01:00 +15°C° 0 mm 2 mps 735 mmHg 89%
    02:00 +14°C° 0 mm 3 mps 734 mmHg 89%
    03:00 +14°C° 0 mm 3 mps 734 mmHg 90%
    04:00 +14°C° 0.2 mm 4 mps 734 mmHg 87%
    05:00 +15°C° 0.2 mm 4 mps 734 mmHg 85%
    06:00 +15°C° 0.2 mm 4 mps 734 mmHg 83%
    07:00 +15°C° 1 mm 6 mps 734 mmHg 83%
    08:00 +15°C° 1 mm 7 mps 735 mmHg 84%
    09:00 +13°C° 1 mm 8 mps 735 mmHg 84%
    10:00 +15°C° 0.3 mm 9 mps 735 mmHg 83%
    11:00 +14°C° 0.3 mm 10 mps 736 mmHg 81%
    12:00 +14°C° 0.3 mm 10 mps 736 mmHg 79%
    13:00 +16°C° 0.1 mm 10 mps 736 mmHg 75%
    14:00 +16°C° 0.1 mm 10 mps 736 mmHg 70%
    15:00 +17°C° 0.1 mm 9 mps 737 mmHg 66%
    16:00 +17°C° 0 mm 8 mps 737 mmHg 68%
    17:00 +16°C° 0 mm 8 mps 737 mmHg 71%
    18:00 +16°C° 0 mm 7 mps 738 mmHg 73%
    19:00 +15°C° 0 mm 6 mps 738 mmHg 75%
    20:00 +15°C° 0 mm 5 mps 739 mmHg 76%
    21:00 +14°C° 0 mm 5 mps 739 mmHg 78%
    22:00 +14°C° 0 mm 5 mps 739 mmHg 77%
    23:00 +14°C° 0 mm 4 mps 739 mmHg 76%

    Tomorrow, 23 April, Tuesday

    Time Temperature Precipitation Wind Pressure Humidity
    00:00 +14°C° 0 mm 4 mps 739 mmHg 76%
    01:00 +13°C° 0 mm 4 mps 739 mmHg 73%
    02:00 +13°C° 0 mm 4 mps 739 mmHg 71%
    03:00 +13°C° 0 mm 4 mps 739 mmHg 69%
    04:00 +13°C° 0 mm 4 mps 739 mmHg 67%
    05:00 +14°C° 0 mm 4 mps 739 mmHg 66%
    06:00 +14°C° 0 mm 4 mps 739 mmHg 64%
    07:00 +17°C° 0 mm 4 mps 740 mmHg 56%
    08:00 +19°C° 0 mm 4 mps 740 mmHg 49%
    09:00 +21°C° 0 mm 4 mps 740 mmHg 42%
    10:00 +22°C° 0 mm 4 mps 740 mmHg 38%
    11:00 +25°C° 0 mm 3 mps 740 mmHg 35%
    12:00 +26°C° 0 mm 2 mps 740 mmHg 31%
    13:00 +26°C° 0 mm 2 mps 740 mmHg 31%
    14:00 +26°C° 0 mm 3 mps 740 mmHg 31%
    15:00 +27°C° 0 mm 3 mps 739 mmHg 32%
    16:00 +25°C° 0 mm 3 mps 739 mmHg 38%
    17:00 +22°C° 0 mm 3 mps 739 mmHg 45%
    18:00 +21°C° 0 mm 3 mps 740 mmHg 51%
    19:00 +20°C° 0.1 mm 3 mps 740 mmHg 57%
    20:00 +18°C° 0.1 mm 3 mps 741 mmHg 62%
    21:00 +17°C° 0.1 mm 4 mps 742 mmHg 67%
    22:00 +17°C° 0 mm 4 mps 742 mmHg 70%
    23:00 +15°C° 0 mm 4 mps 743 mmHg 73%

    Day after tomorrow, 24 April, Wednesday

    Time Temperature Precipitation Wind Pressure Humidity
    00:00 +14°C° 0 mm 4 mps 743 mmHg 76%
    01:00 +14°C° 0.3 mm 4 mps 743 mmHg 78%
    02:00 +14°C° 0.3 mm 4 mps 744 mmHg 81%
    03:00 +14°C° 0.3 mm 5 mps 744 mmHg 83%
    04:00 +14°C° 0.7 mm 4 mps 745 mmHg 83%
    05:00 +14°C° 0.7 mm 3 mps 745 mmHg 84%
    06:00 +15°C° 0.7 mm 2 mps 746 mmHg 84%
    07:00 +15°C° 0.3 mm 2 mps 746 mmHg 80%
    08:00 +16°C° 0.3 mm 2 mps 747 mmHg 77%
    09:00 +16°C° 0.3 mm 2 mps 747 mmHg 73%
    10:00 +17°C° 0.1 mm 2 mps 747 mmHg 67%
    11:00 +19°C° 0.1 mm 1 mps 747 mmHg 62%
    12:00 +19°C° 0.1 mm 1 mps 747 mmHg 56%
    13:00 +20°C° 0 mm 1 mps 747 mmHg 54%
    14:00 +19°C° 0 mm 2 mps 747 mmHg 53%
    15:00 +19°C° 0 mm 2 mps 747 mmHg 51%
    16:00 +19°C° 0 mm 2 mps 747 mmHg 54%
    17:00 +18°C° 0 mm 2 mps 747 mmHg 57%
    18:00 +17°C° 0 mm 2 mps 747 mmHg 61%
    19:00 +16°C° 0 mm 2 mps 748 mmHg 63%
    20:00 +16°C° 0 mm 2 mps 748 mmHg 65%
    21:00 +15°C° 0 mm 1 mps 749 mmHg 67%
    22:00 +15°C° 0 mm 2 mps 749 mmHg 67%
    23:00 +15°C° 0 mm 2 mps 749 mmHg 67%

    25 April, Thursday

    Time Temperature Precipitation Wind Pressure Humidity
    00:00 +15°C° 0 mm 2 mps 748 mmHg 68%
    01:00 +15°C° 0 mm 2 mps 748 mmHg 68%
    02:00 +15°C° 0 mm 2 mps 748 mmHg 68%
    03:00 +15°C° 0 mm 2 mps 748 mmHg 68%
    04:00 +15°C° 0 mm 1 mps 748 mmHg 68%
    05:00 +15°C° 0 mm 1 mps 749 mmHg 67%
    06:00 +15°C° 0 mm 1 mps 749 mmHg 67%
    07:00 +18°C° 0 mm 1 mps 749 mmHg 60%
    08:00 +20°C° 0 mm 1 mps 750 mmHg 54%
    09:00 +22°C° 0 mm 1 mps 750 mmHg 48%
    10:00 +23°C° 0 mm 1 mps 750 mmHg 47%
    11:00 +24°C° 0 mm 2 mps 750 mmHg 46%
    12:00 +24°C° 0 mm 3 mps 750 mmHg 44%
    13:00 +24°C° 0 mm 3 mps 750 mmHg 46%
    14:00 +24°C° 0 mm 3 mps 750 mmHg 47%
    15:00 +22°C° 0 mm 3 mps 749 mmHg 48%
    16:00 +23°C° 0 mm 2 mps 750 mmHg 50%
    17:00 +21°C° 0 mm 2 mps 750 mmHg 52%
    18:00 +20°C° 0 mm 2 mps 750 mmHg 54%
    19:00 +20°C° 0 mm 1 mps 751 mmHg 55%
    20:00 +19°C° 0 mm 1 mps 752 mmHg 57%
    21:00 +19°C° 0 mm 1 mps 752 mmHg 59%
    22:00 +19°C° 0 mm 1 mps 753 mmHg 59%
    23:00 +18°C° 0 mm 1 mps 753 mmHg 59%

    26 April, Friday

    Time Temperature Precipitation Wind Pressure Humidity
    00:00 +17°C° 0 mm 2 mps 753 mmHg 59%
    01:00 +18°C° 0 mm 1 mps 753 mmHg 59%
    02:00 +18°C° 0 mm 1 mps 753 mmHg 60%
    03:00 +18°C° 0 mm 1 mps 753 mmHg 61%
    04:00 +18°C° 0 mm 1 mps 754 mmHg 62%
    05:00 +18°C° 0 mm 1 mps 754 mmHg 64%
    06:00 +18°C° 0 mm 1 mps 754 mmHg 66%
    07:00 +19°C° 0 mm 1 mps 755 mmHg 63%
    08:00 +20°C° 0 mm 1 mps 755 mmHg 60%
    09:00 +20°C° 0 mm 2 mps 755 mmHg 57%
    10:00 +21°C° 0 mm 2 mps 755 mmHg 56%
    11:00 +21°C° 0 mm 3 mps 755 mmHg 56%
    12:00 +22°C° 0 mm 3 mps 755 mmHg 55%
    13:00 +22°C° 0 mm 3 mps 755 mmHg 54%
    14:00 +22°C° 0 mm 3 mps 755 mmHg 54%
    15:00 +22°C° 0 mm 3 mps 754 mmHg 53%
    16:00 +21°C° 0 mm 4 mps 755 mmHg 57%
    17:00 +20°C° 0 mm 4 mps 755 mmHg 61%
    18:00 +18°C° 0 mm 4 mps 755 mmHg 65%
    19:00 +18°C° 0 mm 4 mps 755 mmHg 68%
    20:00 +17°C° 0 mm 3 mps 756 mmHg 71%
    21:00 +16°C° 0 mm 3 mps 756 mmHg 74%
    22:00 +16°C° 0 mm 3 mps 756 mmHg 75%
    23:00 +16°C° 0 mm 3 mps 756 mmHg 77%

    27 April, Saturday

    Time Temperature Precipitation Wind Pressure Humidity
    00:00 +16°C° 0 mm 3 mps 756 mmHg 78%
    01:00 +14°C° 0 mm 3 mps 756 mmHg 78%
    02:00 +15°C° 0 mm 2 mps 755 mmHg 79%
    03:00 +15°C° 0 mm 2 mps 755 mmHg 79%
    04:00 +14°C° 0 mm 3 mps 755 mmHg 78%
    05:00 +16°C° 0 mm 3 mps 755 mmHg 78%
    06:00 +16°C° 0 mm 3 mps 755 mmHg 77%
    07:00 +17°C° 0 mm 3 mps 755 mmHg 70%
    08:00 +19°C° 0 mm 3 mps 756 mmHg 62%
    09:00 +21°C° 0 mm 4 mps 756 mmHg 55%
    10:00 +21°C° 0 mm 4 mps 755 mmHg 54%
    11:00 +22°C° 0 mm 5 mps 755 mmHg 52%
    12:00 +23°C° 0 mm 6 mps 755 mmHg 51%
    13:00 +23°C° 0 mm 6 mps 755 mmHg 52%
    14:00 +23°C° 0 mm 6 mps 754 mmHg 54%
    15:00 +22°C° 0 mm 6 mps 754 mmHg 55%
    16:00 +21°C° 0 mm 6 mps 754 mmHg 59%
    17:00 +20°C° 0 mm 5 mps 754 mmHg 62%
    18:00 +20°C° 0 mm 5 mps 754 mmHg 65%
    19:00 +19°C° 0 mm 5 mps 754 mmHg 68%
    20:00 +18°C° 0 mm 4 mps 755 mmHg 71%
    21:00 +18°C° 0 mm 4 mps 755 mmHg 73%
    22:00 +18°C° 0 mm 4 mps 755 mmHg 74%
    23:00 +17°C° 0 mm 4 mps 755 mmHg 75%
    Show more